Location: Dumpton Point
(51.3500°N, 1.4433°E)
Time: 06:15:27
(UTC+00:00)

Cosmos 1408 - Visible Passes

Search period start: 11 August 2020 00:00
Search period end: 21 August 2020 00:00
Orbit: 471 x 493 km, 82.6° (Epoch: 10 August)

Date Brightness Start Highest point End Pass type
(mag) Time Alt. Az. Time Alt. Az. Time Alt. Az.
13 Aug 5.1 03:44:01 10° N 03:47:15 27° ENE 03:50:29 10° SE visible
14 Aug 5.7 03:18:53 10° NNE 03:21:36 19° ENE 03:24:19 10° ESE visible
15 Aug 5.9 02:54:02 10° NNE 02:55:54 13° ENE 02:57:46 10° E visible
16 Aug 2.8 04:02:09 10° N 04:05:53 78° ENE 04:09:35 10° SSE visible
17 Aug 3.7 03:36:42 10° N 03:40:21 49° ENE 03:43:56 10° SSE visible
18 Aug 4.6 03:11:22 10° N 03:14:45 32° ENE 03:18:06 10° SE visible
19 Aug 5.2 02:46:09 10° NNE 02:49:06 22° ENE 02:52:02 10° ESE visible
20 Aug 5.6 02:21:09 10° NNE 02:23:25 15° ENE 02:25:38 10° ESE visible
20 Aug 2.7 03:55:08 10° NNW 03:58:48 55° W 04:02:23 10° S visible
